Miscellaneous Local Product
Issued by NWS North Platte, NE

Home | Current Version | Previous Version | Graphics & Text | Print | Product List | Glossary On
Versions: 1 2 3 4 5 6 7 8 9 10 11 12 13 14 15 16 17 18 19 20 21 22 23 24 25 26 27 28 29 30 31 32 33 34 35 36 37 38 39 40 41 42 43 44 45 46 47 48 49 50
000
AXUS43 KLBF 302310
MISLBF


WESTERN AND NORTH CENTRAL NEBRASKA HOURLY WEATHER ROUNDUP
NATIONAL WEATHER SERVICE NORTH PLATTE NE
600 PM CDT FRI SEP 30 2016

NOTE: "FAIR" INDICATES FEW OR NO CLOUDS BELOW 12,000 FEET WITH NO
SIGNIFICANT WEATHER AND/OR OBSTRUCTIONS TO VISIBILITY.

NOTE: STATIONS NOT REPORTING VARIABLES SUCH AS SKY/WEATHER OR
PRESSURE ARE PROVIDED BY RAWS AND APRS NETWORKS AND ARE NOT UNDER
NATIONAL WEATHER SERVICE QUALITY CONTROL.

...OBSERVATIONS IN AND NEAR THE EASTERN PANHANDLE OF NEBRASKA...

CITY           SKY/WX    TMP DP  RH WIND       PRES   REMARKS
PINE RIDGE     CLOUDY    70  47  43 S13       30.07F
CHADRON        CLOUDY    71  49  45 SE12      30.06R
ALLIANCE       CLOUDY    64  47  53 S7        30.12S
SIDNEY         MOSUNNY   69  45  41 SE12      30.16S
CRESCENT LAKE    N/A     68  46  45 S6          N/A
$$

...OBSERVATIONS IN NORTHERN NEBRASKA AND FAR SOUTHERN SOUTH DAKOTA...

CITY           SKY/WX    TMP DP  RH WIND       PRES   REMARKS
WINNER         FAIR      70  47  43 SE15      30.11S
VALENTINE      CLOUDY    69  45  41 SE18      30.12S
THEDFORD       CLOUDY    70  47  43 SE9       30.15S
AINSWORTH      MOSUNNY   67  46  45 S13       30.15S
O`NEILL        MOSUNNY   68  41  37 S7        30.17S
ORD            MOSUNNY   67  40  37 SE6       30.16S
BROKEN BOW     MOSUNNY   66  46  48 SE10      30.16F
VALENTINE NWR    N/A     68  46  44 S10         N/A
BUTTE            N/A     68  44  41 SE8         N/A
HALSEY           N/A     68  45  43 SE8         N/A
EWING            N/A     66  48  52 CALM        N/A
$$

...OBSERVATIONS IN SOUTHWEST NEBRASKA AND FAR NORTHEAST COLORADO...

CITY           SKY/WX    TMP DP  RH WIND       PRES   REMARKS
WRAY           FAIR      72  43  35 SE8       30.13F
HOLYOKE        FAIR      73  45  35 SE13      30.14S
IMPERIAL       MOSUNNY   71  45  39 SE13G22   30.14S
OGALLALA       MOSUNNY   71  46  39 SE7       30.14S
NORTH PLATTE   CLOUDY    68  47  46 SE8       30.15R
MCCOOK         MOSUNNY   69  44  40 SE13      30.14S
LEXINGTON      CLOUDY    68  45  43 SE8       30.16S
STAPLETON        N/A     67  46  46 CALM        N/A
GOTHENBURG       N/A     67  40  38 E7          N/A
CALLAWAY         N/A     65  46  50 SE7         N/A
$$

...OBSERVATIONS IN CENTRAL LINCOLN COUNTY AREA...

CITY           SKY/WX    TMP DP  RH WIND       PRES   REMARKS
N.P. AIRPORT   CLOUDY    68  47  46 SE8       30.15R
N.P. DOWNTOWN    N/A     69  49  49 CALM        N/A
N.P. SOUTHEAST   N/A     69  48  47 SE3         N/A
N.P. HILLCREST   N/A     68  47  46 SE8         N/A
$$

...SOME OBSERVATIONS FROM AROUND THE REGION...

CITY           SKY/WX    TMP DP  RH WIND       PRES   REMARKS
DENVER         CLOUDY    73  43  33 NE7       30.18S
LARAMIE        CLOUDY    64  39  39 N9        30.26R
CHEYENNE       CLOUDY    67  45  45 NE6       30.20S
SCOTTSBLUFF    CLOUDY    68  48  48 SE14      30.11F
RAPID CITY     CLOUDY    68  53  58 SE7       30.03R
BISMARCK       CLOUDY    69  47  45 SE12      30.06F
PIERRE         MOSUNNY   71  46  40 SE20G28   30.06S
SIOUX FALLS    CLOUDY    71  47  42 SE8       30.18S
OMAHA          MOSUNNY   73  48  41 NE6       30.15S
GRAND ISLAND     N/A    N/A N/A N/A MISG      30.17S
KANSAS CITY    MOSUNNY   70  51  51 NE10      30.13S
WICHITA        PTSUNNY   71  48  43 N6        30.13S
OKLAHOMA CITY  MOSUNNY   74  43  32 CALM      30.12S
DALLAS         MOSUNNY   79  43  27 VRB7      30.08F
AMARILLO       SUNNY     79  49  34 S20G25    30.10F
DODGE CITY     SUNNY     75  46  35 SE12G21   30.12F
HAYS           MOSUNNY   72  43  35 SE9       30.14S
GOODLAND       SUNNY     73  46  38 SE17      30.12S
$$




USA.gov is the U.S. government's official web portal to all federal, state and local government web resources and services.